Pipestone, MN

8:44 PM CDT on March 28, 2017 (GMT -0500)
Pipestone Municipal

Weather History for KPQN - August, 2014

Change the Weather History Date:

Tuesday, August 12, 2014

  Actual Average Record
Temperature  
Mean Temperature 62 °F -  
Max Temperature 75 °F 76 °F 89 °F (2010)
Min Temperature 50 °F 56 °F 50 °F (2014)
Degree Days  
Heating Degree Days 2    
Growing Degree Days 12 (Base 50)    
Moisture  
Dew Point 49 °F    
Average Humidity 62    
Maximum Humidity 88    
Minimum Humidity 34    
Precipitation  
Precipitation 0.00 in - - ()
Sea Level Pressure  
Sea Level Pressure 30.14 in    
Wind  
Wind Speed 4 mph (North)    
Max Wind Speed 10 mph    
Max Gust Speed -    
Visibility 10 miles    
Events      
Averages and records for this station are not official NWS values.
T = Trace of Precipitation, MM = Missing Value Source: NWS Daily Summary

Daily Weather History Graph

Daily Weather History Graph

Search for Another Location

Airport or City:

Trip Planner

Search our weather history database for the weather conditions in past years. The results will help you decide how hot, cold, wet, or windy it might be!

Date:

Astronomy

Aug. 12, 2014 Rise Set
Actual Time 6:25 AM CDT 8:33 PM CDT
Civil Twilight 5:54 AM CDT 9:05 PM CDT
Nautical Twilight 5:15 AM CDT 9:44 PM CDT
Astronomical Twilight 4:31 AM CDT 10:26 PM CDT
Moon 9:34 PM CDT (8/12) 8:51 AM CDT (8/12)
Length of Visible Light 15h 11m
Length of Day
14h 08m
Waning Gibbous, 94% of the Moon is Illuminated
Aug 12
Waning Gibbous
Aug 17
Last Quarter
Aug 25
New
Sep 2
First Quarter
Sep 8
Full

Hourly Weather History & Observations

Time (CDT) Temp. Dew Point Humidity Pressure Visibility Wind Dir Wind Speed Gust Speed Precip Events Conditions
12:34 AM 57.2 °F 48.2 °F 72% 30.15 in 10.0 mi North 4.6 mph - N/A   Clear
12:54 AM 57.2 °F 48.2 °F 72% 30.15 in 10.0 mi North 3.5 mph - N/A   Clear
1:14 AM 57.2 °F 48.2 °F 72% 30.15 in 10.0 mi North 6.9 mph - N/A   Clear
1:34 AM 55.4 °F 48.2 °F 77% 30.15 in 10.0 mi North 6.9 mph - N/A   Clear
1:54 AM 57.2 °F 48.2 °F 72% 30.15 in 10.0 mi NNW 5.8 mph - N/A   Clear
2:14 AM 55.4 °F 48.2 °F 77% 30.15 in 10.0 mi NNW 4.6 mph - N/A   Clear
2:34 AM 53.6 °F 48.2 °F 82% 30.15 in 10.0 mi NW 3.5 mph - N/A   Clear
2:54 AM 53.6 °F 48.2 °F 82% 30.15 in 10.0 mi NNW 3.5 mph - N/A   Clear
3:14 AM 53.6 °F 48.2 °F 82% 30.15 in 10.0 mi Calm Calm - N/A   Clear
3:34 AM 53.6 °F 48.2 °F 82% 30.14 in 10.0 mi NNW 3.5 mph - N/A   Clear
3:54 AM 53.6 °F 48.2 °F 82% 30.14 in 10.0 mi NNW 4.6 mph - N/A   Clear
4:34 AM 53.6 °F 48.2 °F 82% 30.14 in 10.0 mi Calm Calm - N/A   Clear
4:54 AM 51.8 °F 48.2 °F 88% 30.14 in 10.0 mi Calm Calm - N/A   Clear
5:14 AM 53.6 °F 48.2 °F 82% 30.15 in 10.0 mi Calm Calm - N/A   Clear
5:34 AM 51.8 °F 48.2 °F 88% 30.15 in 10.0 mi Calm Calm - N/A   Clear
5:55 AM 51.8 °F 48.2 °F 88% 30.15 in 10.0 mi Calm Calm - N/A   Clear
6:15 AM 51.8 °F 46.4 °F 82% 30.15 in 10.0 mi Calm Calm - N/A   Clear
6:34 AM 50.0 °F 46.4 °F 87% 30.16 in 10.0 mi Calm Calm - N/A   Clear
6:54 AM 51.8 °F 48.2 °F 88% 30.16 in 10.0 mi NNW 3.5 mph - N/A   Clear
7:14 AM 53.6 °F 48.2 °F 82% 30.17 in 10.0 mi NNW 4.6 mph - N/A   Clear
7:34 AM 55.4 °F 48.2 °F 77% 30.17 in 10.0 mi NNW 5.8 mph - N/A   Clear
7:54 AM 55.4 °F 48.2 °F 77% 30.17 in 10.0 mi NNW 8.1 mph - N/A   Clear
8:14 AM 57.2 °F 48.2 °F 72% 30.17 in 10.0 mi NNW 5.8 mph - N/A   Clear
8:34 AM 59.0 °F 48.2 °F 67% 30.18 in 10.0 mi NNW 5.8 mph - N/A   Clear
8:54 AM 60.8 °F 50.0 °F 68% 30.17 in 10.0 mi NNW 5.8 mph - N/A   Clear
9:14 AM 60.8 °F 51.8 °F 72% 30.17 in 10.0 mi NNW 6.9 mph - N/A   Clear
9:34 AM 62.6 °F 53.6 °F 72% 30.17 in 10.0 mi NNW 5.8 mph - N/A   Clear
9:54 AM 64.4 °F 51.8 °F 64% 30.17 in 10.0 mi NNW 9.2 mph - N/A   Clear
10:14 AM 66.2 °F 51.8 °F 60% 30.17 in 10.0 mi North 6.9 mph - N/A   Clear
10:34 AM 66.2 °F 51.8 °F 60% 30.17 in 10.0 mi North 6.9 mph - N/A   Clear
10:54 AM 69.8 °F 50.0 °F 49% 30.18 in 10.0 mi North 8.1 mph - N/A   Clear
12:34 PM 71.6 °F 50.0 °F 46% 30.16 in 10.0 mi North 6.9 mph - N/A   Clear
12:54 PM 71.6 °F 48.2 °F 43% 30.16 in 10.0 mi NNE 5.8 mph - N/A   Clear
1:14 PM 73.4 °F 48.2 °F 41% 30.15 in 10.0 mi NE 5.8 mph - N/A   Clear
1:34 PM 73.4 °F 46.4 °F 38% 30.15 in 10.0 mi North 3.5 mph - N/A   Clear
1:54 PM 73.4 °F 46.4 °F 38% 30.15 in 10.0 mi NNW 10.4 mph - N/A   Clear
2:15 PM 73.4 °F 48.2 °F 41% 30.14 in 10.0 mi North 5.8 mph - N/A   Clear
2:34 PM 73.4 °F 46.4 °F 38% 30.14 in 10.0 mi North 6.9 mph - N/A   Clear
2:54 PM 73.4 °F 46.4 °F 38% 30.13 in 10.0 mi North 3.5 mph - N/A   Clear
3:34 PM 75.2 °F 44.6 °F 34% 30.13 in 10.0 mi NNW 3.5 mph - N/A   Clear
3:54 PM 75.2 °F 44.6 °F 34% 30.12 in 10.0 mi NNE 5.8 mph - N/A   Clear
4:14 PM 75.2 °F 44.6 °F 34% 30.12 in 10.0 mi North 8.1 mph - N/A   Clear
4:34 PM 75.2 °F 46.4 °F 36% 30.11 in 10.0 mi North 4.6 mph - N/A   Clear
4:54 PM 75.2 °F 46.4 °F 36% 30.11 in 10.0 mi North 3.5 mph - N/A   Clear
5:14 PM 75.2 °F 46.4 °F 36% 30.11 in 10.0 mi Calm Calm - N/A   Clear
5:34 PM 75.2 °F 48.2 °F 38% 30.10 in 10.0 mi North 3.5 mph - N/A   Clear
5:54 PM 75.2 °F 48.2 °F 38% 30.10 in 10.0 mi NNE 4.6 mph - N/A   Clear
6:14 PM 75.2 °F 48.2 °F 38% 30.10 in 10.0 mi North 4.6 mph - N/A   Clear
6:54 PM 75.2 °F 48.2 °F 38% 30.10 in 10.0 mi North 3.5 mph - N/A   Clear
7:14 PM 73.4 °F 51.8 °F 47% 30.10 in 10.0 mi North 3.5 mph - N/A   Clear
7:34 PM 73.4 °F 48.2 °F 41% 30.09 in 10.0 mi Calm Calm - N/A   Clear
7:54 PM 73.4 °F 50.0 °F 44% 30.09 in 10.0 mi Calm Calm - N/A   Clear
8:14 PM 71.6 °F 51.8 °F 50% 30.10 in 10.0 mi Calm Calm - N/A   Clear
8:34 PM 71.6 °F 51.8 °F 50% 30.10 in 10.0 mi Calm Calm - N/A   Clear
8:55 PM 69.8 °F 53.6 °F 56% 30.10 in 10.0 mi Calm Calm - N/A   Clear
9:14 PM 66.2 °F 55.4 °F 68% 30.10 in 10.0 mi Calm Calm - N/A   Clear
9:54 PM 64.4 °F 55.4 °F 73% 30.11 in 10.0 mi Calm Calm - N/A   Clear
10:14 PM 60.8 °F 55.4 °F 82% 30.11 in 10.0 mi Calm Calm - N/A   Clear
10:34 PM 62.6 °F 55.4 °F 77% 30.11 in 10.0 mi Calm Calm - N/A   Clear
10:54 PM 62.6 °F 55.4 °F 77% 30.11 in 10.0 mi Calm Calm - N/A   Clear
11:15 PM 59.0 °F 53.6 °F 82% 30.11 in 10.0 mi Calm Calm - N/A   Clear
11:54 PM 60.8 °F 53.6 °F 77% 30.12 in 10.0 mi Calm Calm - N/A   Clear